Location: Stilling
(56.0622°N, 9.9882°E)
Time: 23:50:08
(UTC+00:00)

NOSS 2-1 (E) - Pass Details

Date: 13 July 2020
Orbit: 446 x 1757 km, 63.3° (Epoch: 02 August)

Event Time Altitude Azimuth Distance (km) Brightness Sun altitude
Rises 23:29:14 0° 307° (NW) 2,874 7.5 -12.3°
Reaches altitude 10° 23:31:12 10° 306° (NW) 2,093 6.8 -12.3°
Maximum altitude 23:35:56 80° 221° (SW) 840 4.1 -12.3°
Drops below altitude 10° 23:42:36 10° 135° (SE) 2,905 6.6 -12.2°
Sets 23:45:45 0° 135° (SE) 4,084 7.4 -12.2°
